Flag for Germany Weather past 2 weeks in Görlitz, Saxony, Germany

Now
36 °F

Scattered clouds.


Feels Like: 32 °F
Forecast: 32 / 56 °F
Wind: 5 mph from Northeast

Location: Goerlitz

Current Time: Apr 18, 2015 at 6:40:15 AM

Latest Report: Apr 18, 2015 at 6:00 AM


Visibility: 14 mi

Pressure: 30.17 "Hg

Humidity: 91%

Dew point: 33 °F

Location of GörlitzLocation

Historic Weather in Görlitz — Graph

°F

Görlitz temperature yesterday

Maximum temperature yesterday: 51 °F (at 3:00 PM)
Minimum temperature yesterday: 40 °F (at 11:00 PM)
Average temperature yesterday: 46 °F

Past Weeks' High & Low Weather Summary

 TemperatureHumidityPressure
High70 °F (Apr 11, 4:00 PM)100% (Apr 4, 4:00 AM)30.58 "Hg (Apr 4, 4:00 AM)
Low28 °F (Apr 5, 7:00 AM)29% (Apr 11, 3:00 PM)29.87 "Hg (Apr 15, 11:00 PM)
Average46 °F69%30.20 "Hg
* Reported Apr 3 5:00 AM — Apr 18 5:00 AM, Görlitz, Weather by CustomWeather, © 2015

Note: Actual official high and low records may vary slightly from our data, if they occured in-between our weather recording intervals... More about our weather records

Advertising

Görlitz weather history for previous 24 hours

 ConditionsComfort  
Time TempWeatherWind HumidityBarometerVisibility
5:00 AM
Sat, Apr 18
38 °FOvercast.3 mph91%30.14 "Hg25 mi
4:00 AM39 °FOvercast.3 mph89%30.13 "Hg25 mi
3:00 AM40 °FOvercast.2 mph86%30.11 "Hg25 mi
2:00 AM40 °FLight rain. Overcast.2 mph86%30.10 "Hg22 mi
1:00 AM41 °FLight rain. Overcast.3 mph77%30.08 "Hg25 mi
12:00 AM42 °FPassing clouds.3 mph75%30.06 "Hg40 mi
11:00 PM
Fri, Apr 17
40 °FPassing clouds.1 mph76%30.05 "Hg43 mi
10:00 PM42 °FPassing clouds.2 mph69%30.03 "Hg40 mi
9:00 PM43 °FPassing clouds.2 mph68%30.01 "Hg40 mi
8:00 PM45 °FPassing clouds.3 mph59%29.99 "Hg47 mi
7:00 PM47 °FOvercast.5 mph51%29.96 "Hg43 mi
6:00 PM48 °FOvercast.5 mph51%29.96 "Hg43 mi
5:00 PM49 °FOvercast.5 mph51%29.94 "Hg43 mi
4:00 PM49 °FOvercast.5 mph49%29.94 "Hg43 mi
3:00 PM51 °FOvercast.3 mph44%29.93 "Hg40 mi
2:00 PM51 °FOvercast.3 mph54%29.94 "Hg37 mi
1:00 PM50 °FOvercast.2 mph54%29.95 "Hg22 mi
12:00 PM49 °FOvercast.3 mph61%29.95 "Hg18 mi
11:00 AM47 °FOvercast.2 mph64%29.96 "Hg22 mi
10:00 AM45 °FOvercast.2 mph68%29.95 "Hg28 mi
9:00 AM44 °FOvercast.2 mph71%29.96 "Hg28 mi
8:00 AM43 °FOvercast.1 mph71%29.95 "Hg37 mi
7:00 AM42 °FOvercast.1 mph71%29.94 "Hg28 mi
6:00 AM42 °FOvercast.1 mph67%29.95 "Hg37 mi
Weather by CustomWeather, © 2015

See weather overviewHow to use our weather pages